This demonstration page uses our WeatherBlox Daily Observations layout. Learn more.

Left ArrowRight Arrow

44.8408, -93.29828

Hourly Observations for March 28, 2015

Temp ( °F °C ) Dew Point ( °F °C ) Humidity (%) Winds ( mph kmh ) Pressure ( in mb ) Visibility ( mi km ) Precip ( " mm )
12:53 am 00:53 Mostly Cloudy 25 -3.9 9 -12.8 50 50 SE 5 7 30.21 1023 10 16 0.00 0.00
1:53 am 01:53 Mostly Cloudy 25 -3.9 8 -13.3 48 48 SE 6 9 30.22 1023 10 16 0.00 0.00
2:53 am 02:53 Clear 24 -4.4 7 -13.9 48 48 ESE 3 6 30.22 1024 10 16 0.00 0.00
3:53 am 03:53 Mostly Cloudy 24 -4.4 7 -13.9 48 48 ESE 6 9 30.23 1024 10 16 0.00 0.00
4:53 am 04:53 Mostly Cloudy 22 -5.6 8 -13.3 55 55 SE 5 7 30.23 1024 10 16 0.00 0.00
5:53 am 05:53 Clear 21 -6.1 9 -12.8 59 59 SE 6 9 30.24 1024 10 16 0.00 0.00
6:53 am 06:53 Clear 20 -6.7 9 -12.8 62 62 SE 5 7 30.27 1025 10 16 0.00 0.00
7:53 am 07:53 Mostly Sunny 22 -5.6 11 -11.7 63 63 SE 7 11 30.28 1026 10 16 0.00 0.00
8:53 am 08:53 Sunny 26 -3.3 12 -11.1 55 55 SE 7 11 30.29 1026 10 16 0.00 0.00
9:53 am 09:53 Sunny 30 -1.1 12 -11.1 47 47 SE 7 11 30.29 1026 10 16 0.00 0.00
10:53 am 10:53 Sunny 33 0.6 11 -11.7 40 40 SSE 13 20 30.29 1026 10 16 0.00 0.00
11:53 am 11:53 Sunny 35 1.7 13 -10.6 40 40 S 10 17 30.28 1025 10 16 0.00 0.00
12:53 pm 12:53 Sunny 39 3.9 14 -10 36 36 SSE 15 24 30.25 1025 10 16 0.00 0.00
1:53 pm 13:53 Sunny 39 3.9 15 -9.4 38 38 S 15 24 30.23 1024 10 16 0.00 0.00
2:53 pm 14:53 Mostly Sunny 40 4.4 15 -9.4 36 36 S 14 22 30.21 1023 10 16 0.00 0.00
3:53 pm 15:53 Mostly Sunny 40 4.4 20 -6.7 45 45 S 15 24 30.18 1022 10 16 0.00 0.00
4:53 pm 16:53 Sunny 40 4.4 21 -6.1 47 47 S 16 26 30.15 1021 10 16 0.00 0.00
5:53 pm 17:53 Mostly Sunny 40 4.4 22 -5.6 49 49 SSE 14 22 30.13 1020 10 16 0.00 0.00
6:53 pm 18:53 Mostly Sunny 39 3.9 21 -6.1 48 48 SSE 16 26 30.11 1020 10 16 0.00 0.00
7:53 pm 19:53 Mostly Clear 37 2.8 21 -6.1 52 52 SSE 12 19 30.08 1019 10 16 0.00 0.00
8:53 pm 20:53 Partly Cloudy 35 1.7 21 -6.1 57 57 SE 13 20 30.07 1018 10 16 0.00 0.00
9:53 pm 21:53 Cloudy 36 2.2 22 -5.6 57 57 SSE 13 20 30.04 1017 10 16 0.00 0.00
10:53 pm 22:53 Partly Cloudy 36 2.2 22 -5.6 57 57 SSE 15 24 29.99 1016 10 16 0.00 0.00
11:53 pm 23:53 Partly Cloudy 36 2.2 21 -6.1 55 55 SSE 16 26 29.94 1014 10 16 0.00 0.00

Powered by AerisWeather